[[{"header":{"parameterUnit":"m.s-1","parameterCategory":1,"la1":30.2991,"la2":30.254,"lo1":-89.0895,"lo2":-89.0444,"dy":0.0017,"dx":0.0017,"nx":28,"ny":28,"refTime":"2025-02-06T09:00:00:Z","depth":0,"parameterNumber":2,"parameterNumberName":"U-component_of_WINDS"},"data":[0,0,0,0,0,0,0,0,0,0,0,0,0,0,0,0,0,0,0,0,0,0,0,0,0,0,0,0,0,0,0,0,0,0,0,0,0,0,0,0,0,0,0,0,0,0,0,0,0,0,0,0,0,0,0,0,0,0,-0.7059,-0.706,0,-0.7151,-0.7152,-0.7153,-0.7198,-0.7198,-0.7198,-0.7198,-0.7292,-0.7294,-0.7297,0,0,0,0,0,0,0,0,0,0,0,0,0,-0.6921,-0.6924,-0.7059,-0.706,-0.7061,-0.7151,-0.7152,-0.7154,-0.7198,-0.7198,-0.7198,-0.7198,-0.7291,-0.7294,-0.7297,0,0,0,0,0,0,0,0,0,0,0,0,0,-0.6994,-0.6924,-0.7059,-0.7094,-0.7099,-0.7151,-0.7152,-0.7154,-0.7198,-0.7198,-0.7198,-0.7198,-0.729,-0.7294,-0.7297,-0.7321,0,0,-0.7309,-0.731,0,0,0,0,0,0,0,0,-0.699,-0.6999,-0.7088,-0.7092,-0.7097,-0.7163,-0.7138,-0.721,-0.7198,-0.716,-0.7198,-0.7198,-0.7249,-0.7256,-0.7273,-0.7325,-0.7329,-0.7309,-0.7311,-0.7313,-0.7314,0,0,0,0,0,0,0,-0.6985,-0.6995,-0.7095,-0.7089,-0.7095,-0.7106,-0.7116,-0.7152,-0.7204,-0.7164,-0.7167,-0.7178,-0.7251,-0.727,-0.7276,-0.7331,-0.7309,-0.7312,-0.7315,-0.7316,-0.7407,-0.7407,0,0,0,0,0,0,-0.6974,-0.6991,-0.7093,-0.7098,-0.7042,-0.7108,-0.712,-0.7142,-0.7203,-0.7213,-0.7177,-0.7179,-0.7263,-0.7272,-0.7279,-0.7312,-0.7313,-0.7317,-0.7319,-0.7407,-0.7407,-0.7407,0,0,0,0,0,0,-0.6971,-0.6983,-0.7089,-0.7046,-0.706,-0.7111,-0.7135,-0.7144,-0.7162,-0.7214,-0.7223,-0.7187,-0.7264,-0.7274,-0.7311,-0.7315,-0.7318,-0.7322,-0.7407,-0.7407,-0.7407,-0.7375,0,0,0,0,0,0,-0.6967,-0.6981,-0.6991,-0.7045,-0.7062,-0.7118,-0.7135,-0.7146,-0.7169,-0.7172,-0.7225,-0.7234,-0.7264,-0.7305,-0.7314,-0.7321,-0.7325,-0.7407,-0.7407,-0.7407,-0.7376,-0.7375,-0.7373,0,0,0,0,0,-0.6962,-0.6978,-0.6991,-0.7003,-0.7075,-0.7118,-0.7128,-0.7163,-0.7169,-0.7179,-0.7212,-0.7232,-0.7313,-0.7308,-0.7319,-0.7327,-0.7406,-0.7407,-0.7407,-0.7377,-0.7375,-0.7373,0,0,0,0,0,0,-0.6922,-0.6986,-0.7001,-0.7035,-0.7071,-0.7126,-0.714,-0.716,-0.7195,-0.7196,-0.7238,-0.725,-0.7282,-0.7308,-0.7301,-0.7353,-0.7362,-0.7364,-0.7335,-0.7334,-0.7332,-0.7325,-0.7328,0,0,0,0,0,-0.6917,-0.6948,-0.7001,-0.7027,-0.7044,-0.7088,-0.7109,-0.7133,-0.7172,-0.7187,-0.7223,-0.726,-0.7294,-0.7315,-0.7349,-0.738,-0.7393,-0.7391,-0.7389,-0.7388,-0.739,-0.7409,-0.7409,-0.7409,-0.7409,-0.7409,0,0,-0.6908,-0.6946,-0.6963,-0.702,-0.705,-0.7081,-0.7101,-0.7132,-0.7155,-0.7192,-0.7228,-0.7256,-0.73,-0.7334,-0.735,-0.7356,-0.7392,-0.7388,-0.7387,-0.7389,-0.7409,-0.7409,-0.7409,-0.7409,-0.7409,-0.7409,0,0,-0.6906,-0.6938,-0.6963,-0.6994,-0.704,-0.707,-0.7075,-0.7127,-0.7147,-0.7185,-0.7213,-0.7241,-0.7298,-0.7328,-0.7351,-0.7361,-0.7381,-0.7371,-0.7363,-0.7381,-0.7381,-0.7381,-0.7385,-0.7386,-0.7373,-0.7373,-0.7373,0,-0.6889,-0.6936,-0.6973,-0.7003,-0.7027,-0.7062,-0.7088,-0.7115,-0.717,-0.7186,-0.7191,-0.7265,-0.7296,-0.7338,-0.7341,-0.7358,-0.7366,-0.7365,-0.7378,-0.7379,-0.7379,-0.7384,-0.7385,-0.7371,-0.7371,-0.7372,-0.7372,0,-0.6912,-0.6944,-0.6959,-0.7011,-0.7037,-0.7064,-0.7106,-0.7127,-0.7149,-0.7178,-0.7216,-0.7256,-0.7299,-0.731,-0.7332,-0.7355,-0.7358,-0.737,-0.738,-0.7377,-0.7382,-0.7384,-0.7369,-0.737,-0.737,-0.737,0,0,-0.6888,-0.6961,-0.6966,-0.699,-0.7044,-0.707,-0.7099,-0.7141,-0.7159,-0.7195,-0.7221,-0.7269,-0.7281,-0.7307,-0.7332,-0.7348,-0.7354,-0.7359,-0.736,-0.7357,-0.7383,-0.7373,-0.7375,-0.7367,-0.7368,-0.7368,-0.7379,0,-0.6895,-0.6948,-0.6983,-0.7023,-0.7053,-0.7087,-0.7112,-0.7148,-0.7176,-0.7206,-0.7236,-0.727,-0.7283,-0.7299,-0.7316,-0.7349,-0.736,-0.7349,-0.7392,-0.7393,-0.738,-0.7377,-0.7367,-0.7376,-0.7382,-0.7382,-0.7382,0,-0.6909,-0.6945,-0.6988,-0.7039,-0.7053,-0.7075,-0.7117,-0.7145,-0.7186,-0.7205,-0.7234,-0.726,-0.7292,-0.7299,-0.7344,-0.7336,-0.7355,-0.7374,-0.7375,-0.7381,-0.7387,-0.7383,-0.738,-0.7381,-0.7385,-0.7385,-0.7385,0,-0.6888,-0.6947,-0.6981,-0.7001,-0.706,-0.7075,-0.7101,-0.7142,-0.7166,-0.7202,-0.7218,-0.7257,-0.7279,-0.7309,-0.7344,-0.7346,-0.7386,-0.7395,-0.7403,-0.7402,-0.741,-0.7409,-0.741,-0.7422,-0.7422,-0.7422,-0.7422,0,-0.6891,-0.6917,-0.6972,-0.6993,-0.7022,-0.7061,-0.7089,-0.7118,-0.7154,-0.7181,-0.7212,-0.7237,-0.7282,-0.7312,-0.734,-0.7374,-0.7383,-0.74,-0.7407,-0.7397,-0.7395,-0.7411,-0.7411,-0.7422,-0.7422,-0.7422,-0.7422,0,-0.6873,-0.6911,-0.695,-0.7004,-0.7018,-0.7037,-0.7083,-0.7104,-0.7134,-0.7167,-0.7178,-0.7224,-0.7261,-0.73,-0.735,-0.7369,-0.7401,-0.7411,-0.7387,-0.7392,-0.7397,-0.7396,-0.7408,-0.7412,-0.742,-0.742,-0.742,0,-0.6873,-0.6893,-0.6949,-0.6969,-0.6994,-0.7026,-0.705,-0.709,-0.7114,-0.7162,-0.7178,-0.7218,-0.7251,-0.7309,-0.7347,-0.7386,-0.7397,-0.7399,-0.7403,-0.7393,-0.7398,-0.7396,-0.7399,-0.7397,-0.7397,-0.7397,-0.7397,0,-0.6869,-0.6887,-0.692,-0.696,-0.6988,-0.7022,-0.7056,-0.7071,-0.7118,-0.7143,-0.7181,-0.7208,-0.7259,-0.7298,-0.7341,-0.7368,-0.739,-0.7395,-0.7399,-0.7389,-0.7375,-0.7383,-0.7384,-0.7394,-0.7395,-0.7395,-0.7395,-0.7395,-0.686,-0.6879,-0.6922,-0.6958,-0.6989,-0.702,-0.7043,-0.7076,-0.7109,-0.7154,-0.7175,-0.7214,-0.7255,-0.7316,-0.7342,-0.7373,-0.7379,-0.7384,-0.7386,-0.7387,-0.7384,-0.7369,-0.7381,-0.7381,-0.7381,-0.7381,-0.7381,0,-0.6858,-0.6887,-0.692,-0.6967,-0.6996,-0.7015,-0.7054,-0.7077,-0.711,-0.7147,-0.718,-0.7224,-0.7262,-0.7304,-0.7344,-0.7361,-0.7372,-0.737,-0.737,-0.7375,-0.7376,-0.7369,-0.7361,-0.7361,-0.7361,-0.7361,-0.7361,-0.7361,-0.686,-0.6894,-0.6917,-0.6967,-0.6996,-0.7034,-0.7055,-0.7085,-0.7114,-0.7163,-0.7194,-0.7221,-0.726,-0.7304,-0.7339,-0.7351,-0.7364,-0.736,-0.7374,-0.7374,-0.7375,-0.7377,-0.737,-0.7362,-0.7362,-0.7371,-0.7371,-0.7371]},{"header":{"parameterUnit":"m.s-1","parameterCategory":1,"la1":30.2991,"la2":30.254,"lo1":-89.0895,"lo2":-89.0444,"dy":0.0017,"dx":0.0017,"nx":28,"ny":28,"refTime":"2025-02-06T09:00:00:Z","depth":0,"parameterNumber":3,"parameterNumberName":"V-component_of_WINDS"},"data":[0,0,0,0,0,0,0,0,0,0,0,0,0,0,0,0,0,0,0,0,0,0,0,0,0,0,0,0,0,0,0,0,0,0,0,0,0,0,0,0,0,0,0,0,0,0,0,0,0,0,0,0,0,0,0,0,0,0,2.7614,2.7615,0,2.7737,2.7739,2.774,2.7779,2.7779,2.7778,2.7778,2.7903,2.7907,2.7911,0,0,0,0,0,0,0,0,0,0,0,0,0,2.7412,2.7415,2.7614,2.7615,2.7617,2.7737,2.7739,2.7741,2.778,2.7779,2.7778,2.7778,2.7902,2.7907,2.7911,0,0,0,0,0,0,0,0,0,0,0,0,0,2.7514,2.7416,2.7613,2.7651,2.7655,2.7737,2.7739,2.7741,2.778,2.7779,2.7778,2.7777,2.79,2.7906,2.7912,2.7965,0,0,2.793,2.7932,0,0,0,0,0,0,0,0,2.7508,2.7521,2.7644,2.7648,2.7654,2.7742,2.7714,2.7816,2.778,2.7732,2.7778,2.7777,2.785,2.786,2.7885,2.7971,2.7976,2.793,2.7934,2.7936,2.7938,0,0,0,0,0,0,0,2.7501,2.7516,2.7663,2.7645,2.7652,2.7662,2.7675,2.7733,2.7795,2.7737,2.774,2.7754,2.7853,2.7879,2.7888,2.7978,2.793,2.7935,2.7939,2.7941,2.8115,2.8116,0,0,0,0,0,0,2.7487,2.751,2.7659,2.7666,2.7577,2.7666,2.7681,2.7715,2.7794,2.7805,2.7754,2.7755,2.787,2.7882,2.7893,2.7962,2.7936,2.7941,2.7945,2.8114,2.8116,2.8117,0,0,0,0,0,0,2.7483,2.75,2.7654,2.7589,2.7609,2.767,2.7708,2.7717,2.7744,2.7808,2.7819,2.777,2.787,2.7885,2.7947,2.7967,2.7944,2.7949,2.8113,2.8115,2.8116,2.8099,0,0,0,0,0,0,2.7477,2.7498,2.7519,2.7589,2.7613,2.7706,2.7709,2.7721,2.7754,2.7756,2.7826,2.7836,2.787,2.7938,2.7953,2.7974,2.7954,2.8111,2.8114,2.8116,2.8098,2.81,2.8102,0,0,0,0,0,2.747,2.7508,2.752,2.7538,2.764,2.7707,2.772,2.7759,2.7756,2.7777,2.7818,2.7834,2.7962,2.7944,2.7961,2.7985,2.811,2.8113,2.8115,2.8097,2.81,2.8102,0,0,0,0,0,0,2.7438,2.7518,2.7532,2.7595,2.7644,2.7713,2.7741,2.776,2.781,2.781,2.7856,2.7871,2.7931,2.7964,2.7943,2.8041,2.8037,2.8043,2.8017,2.802,2.8022,2.8013,2.7959,0,0,0,0,0,2.7439,2.7487,2.7554,2.7603,2.7627,2.768,2.771,2.7736,2.7789,2.781,2.7855,2.7905,2.7957,2.799,2.8041,2.8103,2.8119,2.8127,2.8129,2.813,2.8135,2.8172,2.8177,2.8125,2.8125,2.8125,0,0,2.744,2.749,2.7517,2.7598,2.7639,2.7688,2.7697,2.7748,2.7785,2.7817,2.788,2.7915,2.7974,2.8037,2.8067,2.8066,2.8153,2.8133,2.8134,2.8138,2.8175,2.818,2.8185,2.8127,2.8127,2.8126,0,0,2.7468,2.751,2.7556,2.7597,2.766,2.7695,2.7706,2.7774,2.7799,2.7862,2.7888,2.7932,2.802,2.8062,2.8095,2.814,2.8157,2.8155,2.8164,2.82,2.8204,2.8208,2.8226,2.8231,2.816,2.816,2.816,0,2.7461,2.7537,2.7577,2.7628,2.7664,2.7696,2.7744,2.7781,2.7857,2.7881,2.7879,2.7992,2.8034,2.8108,2.8119,2.8144,2.8159,2.8148,2.82,2.8205,2.8209,2.8226,2.8233,2.8159,2.8159,2.8159,2.8159,0,2.7527,2.7578,2.7608,2.7682,2.7721,2.7769,2.7818,2.7852,2.7875,2.791,2.7976,2.8027,2.809,2.8109,2.8131,2.8187,2.8185,2.8191,2.8188,2.8213,2.823,2.8237,2.8159,2.8159,2.8159,2.8159,0,0,2.7538,2.7635,2.7645,2.768,2.7752,2.7793,2.7843,2.7906,2.7935,2.7986,2.8031,2.8105,2.8112,2.8149,2.8176,2.8207,2.8242,2.821,2.8212,2.8215,2.8309,2.8305,2.8312,2.8253,2.8255,2.8256,2.8304,0,2.7576,2.7669,2.7708,2.7782,2.7832,2.7864,2.7908,2.7957,2.7992,2.8039,2.8077,2.813,2.8134,2.8157,2.8189,2.8231,2.8262,2.8228,2.8296,2.8298,2.8281,2.832,2.8316,2.8359,2.8311,2.8312,2.8313,0,2.7633,2.7686,2.7766,2.7834,2.7856,2.7895,2.7957,2.8001,2.8058,2.8081,2.8123,2.8149,2.8204,2.8197,2.8274,2.825,2.8281,2.8306,2.8308,2.8317,2.8308,2.8331,2.8373,2.838,2.8324,2.8323,2.8322,0,2.7636,2.7727,2.7787,2.7815,2.7895,2.7923,2.7957,2.8013,2.8049,2.8102,2.8126,2.8185,2.8217,2.8262,2.8304,2.8294,2.8378,2.8373,2.8399,2.8398,2.8416,2.8415,2.8465,2.8433,2.8433,2.8433,2.8433,0,2.7675,2.7723,2.7789,2.7826,2.7882,2.7926,2.7979,2.8016,2.8066,2.8111,2.8142,2.8184,2.8235,2.8284,2.8316,2.8376,2.839,2.8411,2.8419,2.8409,2.8407,2.843,2.8429,2.8435,2.8434,2.8434,2.8434,0,2.7687,2.7733,2.7801,2.7872,2.7891,2.7929,2.799,2.8027,2.8064,2.8121,2.8137,2.8194,2.8253,2.8299,2.8375,2.8397,2.8461,2.8469,2.8442,2.8447,2.8471,2.8468,2.8539,2.8551,2.851,2.851,2.851,0,2.771,2.7748,2.7823,2.7856,2.7891,2.7943,2.798,2.8025,2.8063,2.8131,2.8161,2.8222,2.8274,2.8366,2.8415,2.8474,2.8485,2.8505,2.8494,2.8483,2.8487,2.8485,2.8489,2.8507,2.8507,2.8507,2.8507,0,2.7746,2.7768,2.782,2.7881,2.7924,2.7974,2.8024,2.805,2.8104,2.8145,2.8206,2.8246,2.8325,2.8385,2.845,2.8485,2.8506,2.8511,2.852,2.8511,2.8494,2.8505,2.8447,2.8509,2.8509,2.8509,2.8509,2.8509,2.7766,2.7802,2.7861,2.7919,2.7962,2.8008,2.8048,2.809,2.8142,2.821,2.8234,2.8297,2.8354,2.8443,2.8479,2.853,2.8531,2.8544,2.8548,2.855,2.855,2.8485,2.8541,2.8541,2.8541,2.8541,2.8541,0,2.7805,2.7845,2.7897,2.7968,2.8014,2.8029,2.8086,2.8124,2.8179,2.8231,2.8282,2.8353,2.8412,2.8466,2.8528,2.8558,2.857,2.8573,2.8572,2.8581,2.8545,2.8532,2.8563,2.8563,2.8563,2.8563,2.8563,2.8563,2.7831,2.7893,2.7922,2.8006,2.8046,2.8109,2.814,2.8184,2.8226,2.8304,2.8354,2.8389,2.8442,2.8509,2.8564,2.8579,2.8601,2.8603,2.8619,2.8585,2.8583,2.858,2.8568,2.8607,2.8607,2.8651,2.8651,2.8651]}]]